Location: Adrasan
(36.3319°N, 30.4314°E)
Time: 03:29:47
(UTC+00:00)

COSMO-SKYMED 1 - Pass Details

Date: 18 October 2025
Orbit: 580 x 582 km, 97.9° (Epoch: 13 November)

Event Time Altitude Azimuth Distance (km) Brightness Sun altitude
Rises 02:51:05 0° 145° (SE) 2,798 6.4 -16.2°
Reaches altitude 10° 02:53:23 10° 136° (SE) 1,902 5.7 -15.8°
Maximum altitude 02:57:04 33° 72° (ENE) 1,001 4.3 -15.0°
Drops below altitude 10° 03:00:47 10° 8° (N) 1,911 5.2 -14.3°
Sets 03:03:06 0° 359° (N) 2,814 5.9 -13.8°
